User: anonymous   Login
Location: Fairmont
(43.6520°N, 94.4610°W)
Time: 02:52:23
(UTC-06:00)
Language:

Cosmos-2242 - Orbit

View from above orbital plane
View from above orbital plane
View from above satellite
View from above satellite

Ground track
Ground track

The orbit data is extracted from the following two-line orbital elements,

1 22626U 93024A   17057.82484415  .00000305  00000-0  30708-4 0  9992
2 22626  82.5240 145.8650 0020466 125.0309 235.2833 14.87613273289746
Epoch (UTC): 26 February 2017 19:47:46
Eccentricity: 0.0020466
inclination: 82.5240°
perigee height: 591 km
apogee height: 619 km
right ascension of ascending node: 145.8650°
argument of perigee: 125.0309°
revolutions per day: 14.87613273
mean anomaly at epoch: 235.2833°
orbit number at epoch: 28974

The dashed part of the orbit path shows where the satellite is in the earth's shadow,  

DLR